Miscellaneous Local Product
Issued by NWS North Platte, NE

Home | Current Version | Previous Version | Text Only | Print | Product List | Glossary On
Versions: 1 2 3 4 5 6 7 8 9 10 11 12 13 14 15 16 17 18 19 20 21 22 23 24 25 26 27 28 29 30 31 32 33 34 35 36 37 38 39 40 41 42 43 44 45 46 47 48 49 50
000
AXUS43 KLBF 290210
MISLBF


WESTERN AND NORTH CENTRAL NEBRASKA HOURLY WEATHER ROUNDUP
NATIONAL WEATHER SERVICE NORTH PLATTE NE
900 PM CDT THU AUG 28 2014

***STATIONS NOT REPORTING VARIABLES SUCH AS SKY/WEATHER OR
PRESSURE ARE PROVIDED BY THE NEBRASKA DEPARTMENT OF
ROADS...RAWS...AND APRS NETWORKS...AND ARE NOT UNDER
NATIONAL WEATHER SERVICE QUALITY CONTROL***

...OBSERVATIONS IN AND NEAR THE EASTERN PANHANDLE OF NEBRASKA...

CITY           SKY/WX    TMP DP  RH WIND       PRES   REMARKS
PINE RIDGE     MOCLDY    64  56  75 W6        29.95R
CHADRON        MOCLDY    63  58  83 S6        29.95S
ALLIANCE       MOCLDY    62  55  77 W8        29.97R
SIDNEY         CLOUDY    62  53  72 W8        30.03F
WHITECLAY        N/A     62  57  84 CALM        N/A
RUSHVILLE        N/A     61  54  77 N10         N/A
GORDON           N/A     66  59  79 S8          N/A
CRESCENT LAKE    N/A     62  56  81 W6          N/A
LISCO            N/A     67  55  64 W6          N/A
BIG SPRINGS      N/A     67  59  75 NW3         N/A
$$

...OBSERVATIONS IN NORTH CENTRAL NEBRASKA...

CITY           SKY/WX    TMP DP  RH WIND       PRES   REMARKS
VALENTINE      CLOUDY    62  59  90 SW10      29.88S
THEDFORD       PTCLDY    64  59  85 N10       29.91S
AINSWORTH      CLOUDY    64  58  83 NW10G16   29.88R
O`NEILL        CLOUDY    72  69  91 W10G16    29.87R
ORD            CLOUDY    69  63  81 NW14G21   29.85R
BROKEN BOW     PTCLDY    66  61  84 N8        29.87R
SPRINGVIEW       N/A     61  59  92 NW9G21      N/A
NEWPORT          N/A     72  71  95 W6          N/A
SARGENT          N/A     66  63  91 CALM        N/A
COMSTOCK         N/A     76  69  79 S6          N/A
CHAMBERS         N/A     69  62  80 W10G21      N/A
EWING            N/A     73  70  91 CALM        N/A
$$

...OBSERVATIONS IN SOUTHWEST NEBRASKA AND FAR NORTHEAST COLORADO...

CITY           SKY/WX    TMP DP  RH WIND       PRES   REMARKS
WRAY             N/A     64  58  80 NW6       30.01S
HOLYOKE        FAIR      64  57  77 W6        30.01R
IMPERIAL       MOCLDY    66  56  70 NW6       29.97R
OGALLALA       PTCLDY    57  55  90 W3        29.96R
NORTH PLATTE   PTCLDY    65  59  81 NW8       29.90R
MCCOOK         MOCLDY    72  62  71 W12       29.90R
LEXINGTON      PTCLDY    74  69  82 E3        29.86R
PAXTON           N/A     69  59  71 CALM        N/A
SUTHERLAND       N/A     67  60  75 NW5         N/A
BRADY            N/A     67  60  78 CALM        N/A
GOTHENBURG       N/A     75  60  60 NW7         N/A
CALLAWAY         N/A     69  62  80 NW8         N/A
$$

...SOME WEATHER OBSERVATIONS FROM AROUND THE REGION...

CITY           SKY/WX    TMP DP  RH WIND       PRES   REMARKS
DENVER         MOCLDY    60  48  64 SW7       30.13F
LARAMIE        MOCLDY    57  47  69 W9        30.20S
CHEYENNE       PTCLDY    61  48  62 SE3       30.14S
SCOTTSBLUFF    MOCLDY    61  53  75 W6        30.00F
RAPID CITY     CLOUDY    68  61  78 SE5       29.93R
PIERRE         CLOUDY    70  68  93 N5        29.83F
WINNER         FAIR      69  67  93 W6        29.88R
SIOUX FALLS    CLOUDY    71  69  93 E7        29.83S FOG
OMAHA          MOCLDY    77  72  84 SE7       29.85R
GRAND ISLAND   MOCLDY    75  70  84 S6        29.84R
KANSAS CITY    PTCLDY    82  65  56 S12       29.85R
WICHITA        CLOUDY    75  66  73 SW16G26   29.89R
HAYS           CLOUDY    75  64  69 SE10      29.87R
LIBERAL        PTCLDY    73  55  53 E9        29.95R
GOODLAND       MOCLDY    67  60  78 NW8       30.01R
$$



USA.gov is the U.S. government's official web portal to all federal, state and local government web resources and services.